When you browse on this site, cookies collect data to enhance your experience and personalize the content and advertising you see.
Visit our Privacy Policy to learn more. By continuing to use the site, you agree to this use of cookies and data.

Hourly Weather Satif

Today, 5 July, Sunday

Time Temperature Precipitation Wind Pressure Humidity
00:00 +19°C° 0 mm 1 mps 676 mmHg 57%
01:00 +18°C° 0 mm 1 mps 675 mmHg 59%
02:00 +18°C° 0 mm 1 mps 675 mmHg 60%
03:00 +15°C° 0 mm 0 mps 674 mmHg 62%
04:00 +18°C° 0 mm 1 mps 675 mmHg 60%
05:00 +18°C° 0 mm 1 mps 675 mmHg 57%
06:00 +19°C° 0 mm 1 mps 676 mmHg 53%
07:00 +20°C° 0 mm 1 mps 676 mmHg 45%
08:00 +22°C° 0 mm 1 mps 676 mmHg 37%
09:00 +23°C° 0 mm 1 mps 677 mmHg 29%
10:00 +25°C° 0 mm 2 mps 677 mmHg 25%
11:00 +26°C° 0 mm 2 mps 677 mmHg 22%
12:00 +28°C° 0 mm 3 mps 677 mmHg 18%
13:00 +28°C° 0 mm 3 mps 677 mmHg 18%
14:00 +29°C° 0 mm 4 mps 676 mmHg 18%
15:00 +29°C° 0 mm 4 mps 676 mmHg 17%
16:00 +28°C° 0 mm 4 mps 676 mmHg 19%
17:00 +27°C° 0 mm 4 mps 675 mmHg 22%
18:00 +26°C° 0 mm 4 mps 675 mmHg 24%
19:00 +25°C° 0 mm 3 mps 675 mmHg 29%
20:00 +22°C° 0 mm 3 mps 674 mmHg 35%
21:00 +20°C° 0 mm 2 mps 674 mmHg 41%
22:00 +21°C° 0 mm 1 mps 674 mmHg 40%
23:00 +20°C° 0 mm 1 mps 674 mmHg 39%

Tomorrow, 6 July, Monday

Time Temperature Precipitation Wind Pressure Humidity
00:00 +20°C° 0 mm 1 mps 673 mmHg 39%
01:00 +19°C° 0 mm 1 mps 673 mmHg 38%
02:00 +19°C° 0 mm 1 mps 673 mmHg 36%
03:00 +19°C° 0 mm 1 mps 672 mmHg 35%
04:00 +19°C° 0 mm 1 mps 672 mmHg 33%
05:00 +20°C° 0 mm 1 mps 673 mmHg 31%
06:00 +21°C° 0 mm 1 mps 673 mmHg 30%
07:00 +21°C° 0 mm 2 mps 673 mmHg 32%
08:00 +22°C° 0 mm 3 mps 674 mmHg 35%
09:00 +24°C° 0 mm 3 mps 674 mmHg 38%
10:00 +25°C° 0 mm 4 mps 674 mmHg 37%
11:00 +26°C° 0 mm 5 mps 674 mmHg 37%
12:00 +27°C° 0 mm 6 mps 674 mmHg 37%
13:00 +27°C° 0 mm 6 mps 674 mmHg 37%
14:00 +27°C° 0 mm 7 mps 674 mmHg 37%
15:00 +27°C° 0 mm 7 mps 674 mmHg 37%
16:00 +26°C° 0 mm 6 mps 673 mmHg 41%
17:00 +24°C° 0 mm 6 mps 673 mmHg 45%
18:00 +23°C° 0 mm 5 mps 673 mmHg 49%
19:00 +22°C° 0 mm 5 mps 673 mmHg 55%
20:00 +21°C° 0 mm 4 mps 673 mmHg 61%
21:00 +19°C° 0 mm 3 mps 673 mmHg 67%
22:00 +19°C° 0 mm 3 mps 673 mmHg 67%
23:00 +19°C° 0 mm 2 mps 673 mmHg 67%

Day after tomorrow, 7 July, Tuesday

Time Temperature Precipitation Wind Pressure Humidity
00:00 +18°C° 0 mm 2 mps 673 mmHg 67%
01:00 +18°C° 0 mm 2 mps 672 mmHg 67%
02:00 +17°C° 0 mm 2 mps 672 mmHg 68%
03:00 +18°C° 0 mm 1 mps 672 mmHg 68%
04:00 +17°C° 0 mm 2 mps 672 mmHg 68%
05:00 +18°C° 0 mm 2 mps 672 mmHg 67%
06:00 +18°C° 0 mm 2 mps 672 mmHg 67%
07:00 +20°C° 0 mm 2 mps 673 mmHg 58%
08:00 +21°C° 0 mm 2 mps 674 mmHg 50%
09:00 +24°C° 0 mm 2 mps 674 mmHg 41%
10:00 +26°C° 0 mm 3 mps 675 mmHg 38%
11:00 +27°C° 0 mm 3 mps 675 mmHg 34%
12:00 +29°C° 0 mm 3 mps 675 mmHg 31%
13:00 +29°C° 0 mm 4 mps 675 mmHg 30%
14:00 +30°C° 0 mm 5 mps 675 mmHg 28%
15:00 +30°C° 0 mm 5 mps 675 mmHg 27%
16:00 +29°C° 0 mm 5 mps 674 mmHg 29%
17:00 +28°C° 0 mm 5 mps 674 mmHg 31%
18:00 +27°C° 0 mm 4 mps 674 mmHg 33%
19:00 +26°C° 0 mm 3 mps 674 mmHg 37%
20:00 +25°C° 0 mm 2 mps 674 mmHg 41%
21:00 +23°C° 0 mm 1 mps 674 mmHg 45%
22:00 +23°C° 0 mm 1 mps 674 mmHg 46%
23:00 +20°C° 0 mm 0 mps 674 mmHg 47%

8 July, Wednesday

Time Temperature Precipitation Wind Pressure Humidity
00:00 +20°C° 0 mm 0 mps 673 mmHg 49%
01:00 +19°C° 0 mm 0 mps 673 mmHg 49%
02:00 +21°C° 0 mm 1 mps 673 mmHg 50%
03:00 +20°C° 0 mm 1 mps 672 mmHg 51%
04:00 +21°C° 0 mm 1 mps 673 mmHg 51%
05:00 +21°C° 0 mm 1 mps 673 mmHg 50%
06:00 +22°C° 0 mm 1 mps 673 mmHg 50%
07:00 +23°C° 0 mm 1 mps 674 mmHg 43%
08:00 +25°C° 0 mm 2 mps 675 mmHg 36%
09:00 +27°C° 0 mm 2 mps 675 mmHg 29%
10:00 +28°C° 0 mm 3 mps 675 mmHg 25%
11:00 +30°C° 0 mm 3 mps 675 mmHg 22%
12:00 +32°C° 0 mm 4 mps 676 mmHg 18%
13:00 +32°C° 0 mm 5 mps 675 mmHg 17%
14:00 +32°C° 0 mm 5 mps 675 mmHg 16%
15:00 +32°C° 0 mm 5 mps 675 mmHg 16%
16:00 +30°C° 0 mm 5 mps 675 mmHg 18%
17:00 +29°C° 0 mm 4 mps 675 mmHg 20%
18:00 +28°C° 0 mm 4 mps 674 mmHg 22%
19:00 +26°C° 0 mm 3 mps 674 mmHg 27%
20:00 +25°C° 0 mm 2 mps 674 mmHg 32%
21:00 +23°C° 0 mm 2 mps 674 mmHg 37%
22:00 +22°C° 0 mm 1 mps 674 mmHg 39%
23:00 +22°C° 0 mm 1 mps 674 mmHg 41%

9 July, Thursday

Time Temperature Precipitation Wind Pressure Humidity
00:00 +21°C° 0 mm 1 mps 674 mmHg 43%
01:00 +20°C° 0 mm 1 mps 673 mmHg 44%
02:00 +20°C° 0 mm 1 mps 673 mmHg 45%
03:00 +19°C° 0 mm 1 mps 673 mmHg 46%
04:00 +20°C° 0 mm 1 mps 673 mmHg 43%
05:00 +21°C° 0 mm 1 mps 674 mmHg 41%
06:00 +22°C° 0 mm 1 mps 674 mmHg 38%
07:00 +24°C° 0 mm 1 mps 674 mmHg 32%
08:00 +26°C° 0 mm 1 mps 675 mmHg 26%
09:00 +28°C° 0 mm 1 mps 676 mmHg 20%
10:00 +29°C° 0 mm 1 mps 676 mmHg 18%
11:00 +31°C° 0 mm 1 mps 676 mmHg 16%
12:00 +32°C° 0 mm 1 mps 676 mmHg 14%
13:00 +34°C° 0 mm 2 mps 676 mmHg 14%
14:00 +34°C° 0 mm 3 mps 675 mmHg 15%
15:00 +34°C° 0 mm 4 mps 675 mmHg 15%
16:00 +33°C° 0 mm 4 mps 675 mmHg 19%
17:00 +32°C° 0 mm 4 mps 675 mmHg 22%
18:00 +30°C° 0 mm 5 mps 674 mmHg 26%
19:00 +28°C° 0 mm 4 mps 674 mmHg 31%
20:00 +27°C° 0 mm 3 mps 674 mmHg 36%
21:00 +25°C° 0 mm 2 mps 674 mmHg 41%
22:00 +25°C° 0 mm 2 mps 674 mmHg 42%
23:00 +24°C° 0 mm 2 mps 674 mmHg 43%

10 July, Friday

Time Temperature Precipitation Wind Pressure Humidity
00:00 +23°C° 0 mm 2 mps 673 mmHg 44%
01:00 +23°C° 0 mm 2 mps 673 mmHg 45%
02:00 +23°C° 0 mm 2 mps 672 mmHg 46%
03:00 +22°C° 0 mm 1 mps 672 mmHg 47%
04:00 +23°C° 0 mm 1 mps 672 mmHg 44%
05:00 +24°C° 0 mm 1 mps 672 mmHg 41%
06:00 +25°C° 0 mm 1 mps 673 mmHg 38%
07:00 +27°C° 0 mm 2 mps 673 mmHg 33%
08:00 +29°C° 0 mm 2 mps 674 mmHg 27%
09:00 +31°C° 0 mm 3 mps 675 mmHg 22%
10:00 +33°C° 0 mm 3 mps 675 mmHg 20%
11:00 +34°C° 0 mm 3 mps 675 mmHg 18%
12:00 +35°C° 0 mm 3 mps 675 mmHg 16%
13:00 +36°C° 0 mm 4 mps 675 mmHg 15%
14:00 +36°C° 0 mm 5 mps 675 mmHg 15%
15:00 +36°C° 0 mm 6 mps 675 mmHg 15%
16:00 +34°C° 0 mm 6 mps 675 mmHg 17%
17:00 +33°C° 0 mm 5 mps 674 mmHg 19%
18:00 +30°C° 0 mm 5 mps 674 mmHg 21%
19:00 +29°C° 0 mm 4 mps 674 mmHg 23%
20:00 +28°C° 0 mm 2 mps 674 mmHg 25%
21:00 +27°C° 0 mm 1 mps 674 mmHg 27%
22:00 +27°C° 0 mm 1 mps 674 mmHg 28%
23:00 +26°C° 0 mm 1 mps 674 mmHg 28%
Show more